This is the latest recevied weather packets stored in our database for station/object OE5RPP. If no packets are shown the sender has not sent any weather packets the latest 1 day(s).
| Time | Temp. | Humidity | Pressure | Rain* | Wind** | Luminosity | Snow |
|---|---|---|---|---|---|---|---|
| 1777974625 | 23.33° C | 18% | 1010.9 hPa | 0 mm | 2.24 m/s, 157° | - | - |
| 1777974024 | 23.33° C | 18% | 1010.9 hPa | 0 mm | 1.34 m/s, 22° | - | - |
| 1777973424 | 23.33° C | 18% | 1010.9 hPa | 0 mm | 1.34 m/s, 0° | - | - |
| 1777972824 | 22.78° C | 18% | 1010.9 hPa | 0 mm | 1.34 m/s, 337° | - | - |
| 1777972225 | 22.22° C | 18% | 1010.9 hPa | 0 mm | 0.89 m/s, 135° | - | - |
| 1777971625 | 21.67° C | 18% | 1010.9 hPa | 0 mm | 1.79 m/s, 315° | - | - |
| 1777971025 | 21.67° C | 18% | 1010.9 hPa | 0 mm | 0.45 m/s, 135° | - | - |
| 1777970425 | 21.11° C | 20% | 1010.9 hPa | 0 mm | 1.34 m/s, 337° | - | - |
| 1777969824 | 21.11° C | 20% | 1010.9 hPa | 0 mm | 1.34 m/s, 22° | - | - |
| 1777969224 | 20.56° C | 20% | 1010.9 hPa | 0 mm | 1.79 m/s, 0° | - | - |
| 1777968624 | 20.56° C | 23% | 1010.9 hPa | 0 mm | 1.79 m/s, 202° | - | - |
| 1777968024 | 20° C | 26% | 1011.9 hPa | 0 mm | 1.34 m/s, 90° | - | - |
| 1777967424 | 19.44° C | 30% | 1011.9 hPa | 0 mm | 1.34 m/s, 112° | - | - |
| 1777966825 | 18.89° C | 30% | 1011.9 hPa | 0 mm | 0 m/s | - | - |
| 1777966225 | 18.33° C | 31% | 1011.9 hPa | 0 mm | 1.34 m/s, 0° | - | - |
| 1777965625 | 18.33° C | 32% | 1011.9 hPa | 0 mm | 1.34 m/s, 157° | - | - |
| 1777965024 | 17.78° C | 34% | 1011.9 hPa | 0 mm | 1.34 m/s, 0° | - | - |
| 1777964425 | 17.22° C | 34% | 1011.9 hPa | 0 mm | 0 m/s | - | - |
| 1777963825 | 16.67° C | 35% | 1011.9 hPa | 0 mm | 0 m/s | - | - |
| 1777963225 | 16.11° C | 37% | 1011.9 hPa | 0 mm | 2.24 m/s, 0° | - | - |
| 1777962624 | 16.11° C | 40% | 1011.9 hPa | 0 mm | 0 m/s | - | - |
| 1777962024 | 15.56° C | 43% | 1011.9 hPa | 0 mm | 0.45 m/s, 202° | - | - |
| 1777961425 | 15° C | 46% | 1011.9 hPa | 0 mm | 0 m/s | - | - |
| 1777960825 | 14.44° C | 49% | 1011.9 hPa | 0 mm | 0.45 m/s, 180° | - | - |
| 1777960224 | 13.89° C | 50% | 1011.9 hPa | 0 mm | 0.89 m/s, 180° | - | - |
* Rain latest hour (hover to see other rain measurements)
** Current wind speed in m/s (hover to see current wind gust speed)